Regional Weather Roundup
Issued by NWS

Home | Current Version | Previous Version | Text Only | Print | Product List | Glossary Off
Versions: 1 2 3 4 5 6 7 8 9 10 11 12 13 14 15 16 17 18 19 20 21 22 23 24 25 26 27 28 29 30 31 32 33 34 35 36 37 38 39 40 41 42 43 44 45 46 47 48 49 50

000
ASUS43 KLOT 250103
RWRIL

ILLINOIS REGIONAL WEATHER ROUNDUP
NATIONAL WEATHER SERVICE CHICAGO/ROMEOVILLE IL
800 PM CDT MON APR 24 2017

NOTE: "FAIR" INDICATES FEW OR NO CLOUDS BELOW 12,000 FEET WITH NO
SIGNIFICANT WEATHER AND/OR OBSTRUCTIONS TO VISIBILITY.

* THESE STATIONS ARE NOT UNDER NWS QUALITY CONTROL. THEY ALSO MAY NOT
  REPORT WEATHER SUCH AS PRECIPITATION OR FOG.

ILZ001-002-007-009-015-016-024-250200-
NORTHWEST ILLINOIS

CITY           SKY/WX    TMP DP  RH WIND       PRES   REMARKS
MOLINE         CLOUDY    63  35  35 SE6       29.68S
STERLING*      CLEAR     68  28  22 SE7       29.71S
SAVANNA*       CLEAR     65  30  26 SE7       29.70S
$$

ILZ003-004-008-010-011-017-018-250200-
NORTH CENTRAL ILLINOIS

CITY           SKY/WX    TMP DP  RH WIND       PRES   REMARKS
ROCKFORD       PTCLDY    66  30  26 E8        29.75S
FREEPORT*      CLEAR     60  32  34 SE9       29.74S
ROCHELLE*      CLEAR     65  28  24 SE10      29.73F
DE KALB*       CLEAR     62  33  34 E9        29.75S
PERU*          CLEAR     69  23  17 SE14      29.73S
$$

ILZ005-006-012>014-019>023-250200-
NORTHEAST ILLINOIS

CITY           SKY/WX    TMP DP  RH WIND       PRES   REMARKS
CHICAGO-OHARE  CLOUDY    61  32  33 E10       29.76F
CHICAGO-MIDWAY MOCLDY    61  34  36 E10       29.78F
AURORA         CLOUDY    65  32  29 E12       29.75F
LANSING*       CLEAR     56  41  57 NE3       29.79S
JOLIET*        CLEAR     64  36  34 E7        29.76F
WAUKEGAN       PTCLDY    53  32  44 E5        29.77F
DUPAGE AIRPORT CLOUDY    64  31  28 E8        29.75F
KANKAKEE*      PTCLDY    64  34  33 E7        29.78F
WHEELING       PTCLDY    58  32  37 E5        29.78F
MORRIS*        CLEAR     66  29  25 CALM      29.73F
NORTHERLY ISL    N/A     53  38  56 NE8         N/A
$$

LMZ740>746-250200-
SOUTHERN LAKE MICHIGAN

STATION/POSITION SKY/WX   TEMP    WIND        PRES    VSBY  WAVE
                          AIR SEA DIR/SP/G                  HT/PER
                          (F)     (DEG/KT/KT) (MB)    (MI)  (FT/S)
SOUTHERN BUOY              49 43   30/  6/  6 1010.4          1/ 5
HARRISON CRIB              53     360/  3/  4   N/A
BURNHAM HARBOR             53      40/  5/  7   N/A
CALUMET HARBOR             54      10/  4/  7 1008.6F
BURNS HARBOR               69     100/  8/ 11 1009.1F
MICHIGAN CITY              69     100/  9/ 12   N/A
ST. JOSEPH                 63 52  140/  8/ 12 1009.4F         1/ 2
$$

ILZ025>027-034>036-040-047-049-050-058-095>099-250200-
WEST-CENTRAL ILLINOIS

CITY           SKY/WX    TMP DP  RH WIND       PRES   REMARKS
QUINCY         CLOUDY    68  29  23 S6        29.68R
GALESBURG*     CLEAR     67  31  26 CALM      29.69R
MACOMB*        CLEAR     68  26  20 SE7       29.70S
JACKSONVILLE*  CLEAR     67  31  26 SE8       29.70S
PITTSFIELD*    CLEAR     66  32  28 SE8       29.69F
$$

ILZ028>032-037-038-041>044-048-051>054-059>061-250200-
CENTRAL ILLINOIS

CITY           SKY/WX    TMP DP  RH WIND       PRES   REMARKS
PONTIAC        CLEAR     67  32  27 E10       29.75S
BLOOMINGTON    CLEAR     66  28  24 SE9       29.74F
DECATUR        CLEAR     64  33  31 SE9       29.72F
PEORIA         CLEAR     70  24  17 SE8       29.70F
LACON*         CLEAR     69  27  21 SE8       29.70S
LINCOLN*       CLEAR     67  32  26 SE6       29.71S
SPRINGFIELD    CLEAR     67  29  24 S8        29.71F
TAYLORVILLE    CLEAR     66  31  26 SE6       29.72F
$$

ILZ033-039-045-046-055>057-062-063-250200-
EAST-CENTRAL ILLINOIS

CITY           SKY/WX    TMP DP  RH WIND       PRES   REMARKS
CHAMPAIGN      CLEAR     64  33  31 E8        29.76R
RANTOUL*       CLEAR     68  34  28 E8        29.76S
MATTOON        CLEAR     66  43  43 CALM      29.74S
PARIS*         CLEAR     68  39  34 CALM      29.76S
$$

ILZ079-100>102-250200-
SOUTHWEST ILLINOIS

CITY           SKY/WX    TMP DP  RH WIND       PRES   REMARKS
BELLEVILLE     CLEAR     65  40  40 CALM      29.70F
CAHOKIA*       CLEAR     68  37  32 S3        29.71F
SPARTA*        CLEAR     64  46  52 CALM      29.74F
$$

ILZ064>066-069>071-074>076-080>082-084>086-088>090-092>094-250200-
SOUTH-CENTRAL ILLINOIS

CITY           SKY/WX    TMP DP  RH WIND       PRES   REMARKS
CARBONDALE     CLEAR     65  55  70 E3        29.74S
CAIRO*         CLEAR     65  53  66 CALM      29.73F
EFFINGHAM*     CLEAR     65  42  42 CALM      29.76S
MARION         CLEAR     63  50  63 CALM      29.75S
MT. VERNON     CLEAR     58  46  64 CALM      29.74F
CENTRALIA*     CLEAR     66  44  44 CALM      29.73F
SALEM*         CLEAR     67  38  35 CALM      29.75R
$$

ILZ067-068-072-073-078-083-087-091-250200-
SOUTHEAST ILLINOIS

CITY           SKY/WX    TMP DP  RH WIND       PRES   REMARKS
LAWRENCEVILLE  CLEAR     68  45  43 E6        29.73F
FLORA*         CLEAR     68  44  42 CALM      29.74S
FAIRFIELD*     CLEAR     65  43  44 CALM      29.73S
HARRISBURG*    CLEAR     65  55  69 SE3       29.75R
ROBINSON*      CLEAR     64  43  46 E3        29.74S
CARMI*         CLEAR     66  49  54 S3        29.74S
$$

ABBREVIATIONS USED IN REMARKS
   TC - TEMPERATURE IN CELSIUS
  WCI - WIND CHILL INDEX
   HX - HEAT INDEX
  VSB - VISIBILITY
$$




USA.gov is the U.S. government's official web portal to all federal, state and local government web resources and services.